Location: Unspecified
(0.0000°N, 0.0000°E)
Time: 19:59:35
(UTC+00:00)

ISS - Visible Passes

Search period start: 10 December 2018 00:00
Search period end: 20 December 2018 00:00
Orbit: 401 x 408 km, 51.6° (Epoch: 10 December)

Date Brightness Start Highest point End Pass type
(mag) Time Alt. Az. Time Alt. Az. Time Alt. Az.
15 Dec -2.8 18:42:27 10° N 18:45:13 26° NE 18:47:38 12° ESE visible
16 Dec -1.2 19:26:40 10° WNW 19:29:17 23° SW 19:31:56 10° S visible
17 Dec -3.4 18:33:53 10° NW 18:37:06 67° SW 18:40:20 10° SSE visible
19 Dec -0.9 05:16:10 10° S 05:18:51 23° SE 05:21:31 10° ENE visible
19 Dec -0.5 18:26:48 10° W 18:28:57 16° SW 18:31:06 10° SSW visible
